Overview Statistics Trail Chart Weather Telemetry Raw packets
 

This is the latest recevied weather packets stored in our database for station/object N1ORT. If no packets are shown the sender has not sent any weather packets the latest 10 day(s).

<< 1 2 3 4 >>
Time Temp. Humidity Pressure Rain* Wind** Luminosity Snow
1788633027 21.67° C 79% 1009.3 hPa 0 mm - 294 W/m² -
1788632727 22.22° C 76% 1009.2 hPa 0 mm - 290 W/m² -
1788632426 22.78° C 76% 1009.3 hPa 0 mm - 427 W/m² -
1788632121 22.22° C 79% 1009.2 hPa 0 mm - 802 W/m² -
1788631821 22.22° C 79% 1009.3 hPa 0 mm - 755 W/m² -
1788631515 22.22° C 79% 1009.5 hPa 0 mm - 945 W/m² -
1788631211 23.33° C 76% 1009.4 hPa 0 mm - 278 W/m² -
1788630910 22.22° C 77% 1009.5 hPa 0 mm - 403 W/m² -
1788630606 22.22° C 76% 1009.4 hPa 0 mm - 969 W/m² -
1788630301 21.67° C 79% 1009.4 hPa 0 mm - 878 W/m² -
1788629997 21.67° C 79% 1009.2 hPa 0 mm - 781 W/m² -
1788629693 21.67° C 79% 1009.3 hPa 0 mm - 863 W/m² -
1788629388 21.11° C 83% 1009.4 hPa 0 mm - 684 W/m² -
1788629086 20.56° C 81% 1009.1 hPa 0 mm - 317 W/m² -
1788628782 21.11° C 80% 1009.1 hPa 0 mm - 292 W/m² -
1788628478 21.11° C 78% 1009.1 hPa 0 mm - 254 W/m² -
1788628174 21.11° C 79% 1009.1 hPa 0 mm - 312 W/m² -
1788627870 21.11° C 78% 1009.1 hPa 0 mm - 340 W/m² -
1788627570 21.11° C 78% 1009.1 hPa 0 mm - 359 W/m² -
1788627265 21.67° C 78% 1009.1 hPa 0 mm - 327 W/m² -
1788626960 21.67° C 77% 1009.1 hPa 0 mm - 464 W/m² -
1788626655 21.11° C 79% 1009 hPa 0 mm - 386 W/m² -
1788626349 20.56° C 81% 1009.4 hPa 0 mm - 342 W/m² -
1788626047 20.56° C 81% 1009.1 hPa 0 mm - 215 W/m² -
1788625742 21.11° C 79% 1009.1 hPa 0 mm - 225 W/m² -

* Rain latest hour (hover to see other rain measurements)
** Current wind speed in m/s (hover to see current wind gust speed)